Weather History for K40J - July, 2014

Change the Weather History Date:

Monday, July 28, 2014

  Actual Average (KCTY) Record (KCTY)
Temperature  
Mean Temperature 81 °F 82 °F  
Max Temperature 89 °F 91 °F 98 °F (2010)
Min Temperature 73 °F 72 °F 69 °F (2000)
Degree Days  
Heating Degree Days 0 0  
Month to date heating degree days 0  
Since 1 June heating degree days 0  
Since 1 July heating degree days 0  
Cooling Degree Days 16 17  
Month to date cooling degree days 460  
Year to date cooling degree days 1386  
Since 1 June cooling degree days 907  
Growing Degree Days 31 (Base 50)    
Moisture  
Dew Point 75 °F    
Average Humidity 82    
Maximum Humidity 94    
Minimum Humidity 66    
Precipitation  
Precipitation 0.26 in 0.20 in 0.21 in (2001)
Month to date precipitation 5.05  
Year to date precipitation 27.31  
Sea Level Pressure  
Sea Level Pressure 29.99 in    
Wind  
Wind Speed 6 mph (WSW)    
Max Wind Speed 14 mph    
Max Gust Speed 21 mph    
Visibility 10 miles    
Events Rain , Thunderstorm    
T = Trace of Precipitation, MM = Missing Value Source: NWS Daily Summary

Daily Weather History Graph

Daily Weather History Graph

Search for Another Location

Airport or City:

Trip Planner

Search our weather history database for the weather conditions in past years. The results will help you decide how hot, cold, wet, or windy it might be!

Date:

Astronomy

Jul. 28, 2014 Rise Set
Actual Time 6:50 AM EDT 8:30 PM EDT
Civil Twilight 6:24 AM EDT 8:56 PM EDT
Nautical Twilight 5:53 AM EDT 9:27 PM EDT
Astronomical Twilight 5:20 AM EDT 10:00 PM EDT
Moon 8:20 AM EDT (7/28) 9:24 PM EDT (7/28)
Length of Visible Light 14h 32m
Length of Day
13h 39m
Waxing Crescent, 3% of the Moon is Illuminated
Jul 28
Waxing Crescent
Aug 3
First Quarter
Aug 10
Full
Aug 17
Last Quarter
Aug 25
New

Hourly Weather History & Observations

Time (EDT) Temp. Heat Index Dew Point Humidity Pressure Visibility Wind Dir Wind Speed Gust Speed Precip Events Conditions
12:15 AM 80.6 °F 87.1 °F 77.0 °F 89% 30.04 in 10.0 mi WSW 5.8 mph - N/A   Clear
12:55 AM 78.8 °F - 73.4 °F 83% 30.02 in 10.0 mi West 4.6 mph - N/A   Clear
1:15 AM 78.8 °F - 73.4 °F 83% 30.02 in 10.0 mi West 5.8 mph - N/A   Clear
1:35 AM 78.8 °F - 73.4 °F 83% 30.02 in 10.0 mi WSW 5.8 mph - N/A   Clear
1:55 AM 77.0 °F - 73.4 °F 89% 30.01 in 10.0 mi West 4.6 mph - N/A   Clear
2:15 AM 77.0 °F - 73.4 °F 89% 30.00 in 10.0 mi West 4.6 mph - N/A   Clear
2:35 AM 77.0 °F - 73.4 °F 89% 30.00 in 10.0 mi WSW 5.8 mph - N/A   Clear
3:15 AM 78.8 °F - 75.2 °F 89% 30.00 in 10.0 mi West 5.8 mph - N/A   Clear
3:35 AM 78.8 °F - 73.4 °F 83% 30.00 in 10.0 mi West 4.6 mph - N/A   Clear
3:55 AM 78.8 °F - 73.4 °F 83% 30.00 in 10.0 mi West 4.6 mph - N/A   Clear
4:15 AM 77.0 °F - 73.4 °F 89% 30.01 in 10.0 mi West 5.8 mph - N/A   Clear
4:35 AM 77.0 °F - 73.4 °F 89% 30.01 in 10.0 mi West 4.6 mph - N/A   Clear
4:55 AM 77.0 °F - 73.4 °F 89% 30.02 in 10.0 mi West 3.5 mph - N/A   Clear
5:15 AM 77.0 °F - 73.4 °F 89% 30.02 in 10.0 mi Calm Calm - N/A   Clear
5:35 AM 75.2 °F - 73.4 °F 94% 30.02 in 10.0 mi WSW 3.5 mph - N/A   Clear
5:55 AM 75.2 °F - 73.4 °F 94% 30.02 in 10.0 mi WSW 3.5 mph - N/A   Clear
6:15 AM 75.2 °F - 73.4 °F 94% 30.02 in 10.0 mi WSW 4.6 mph - N/A   Clear
6:35 AM 77.0 °F - 73.4 °F 89% 30.03 in 10.0 mi WSW 4.6 mph - N/A   Clear
6:55 AM 77.0 °F - 73.4 °F 89% 30.03 in 10.0 mi WSW 4.6 mph - N/A   Clear
7:15 AM 77.0 °F - 75.2 °F 94% 30.03 in 7.0 mi SW 5.8 mph - N/A   Clear
7:35 AM 77.0 °F - 75.2 °F 94% 30.02 in 7.0 mi WSW 4.6 mph - N/A   Clear
7:55 AM 78.8 °F - 77.0 °F 94% 30.03 in 10.0 mi WSW 6.9 mph - N/A   Scattered Clouds
8:15 AM 80.6 °F 87.1 °F 77.0 °F 89% 30.03 in 10.0 mi WSW 5.8 mph - N/A   Mostly Cloudy
8:35 AM 80.6 °F 87.1 °F 77.0 °F 89% 30.03 in 10.0 mi WSW 6.9 mph - N/A   Mostly Cloudy
8:55 AM 82.4 °F 90.9 °F 77.0 °F 84% 30.04 in 10.0 mi West 10.4 mph - N/A   Mostly Cloudy
9:15 AM 82.4 °F 90.9 °F 77.0 °F 84% 30.03 in 10.0 mi West 11.5 mph - N/A   Mostly Cloudy
9:35 AM 84.2 °F 94.1 °F 77.0 °F 79% 30.04 in 10.0 mi West 10.4 mph - N/A   Mostly Cloudy
9:55 AM 82.4 °F 90.9 °F 77.0 °F 84% 30.03 in 10.0 mi West 10.4 mph - N/A   Overcast
10:35 AM 84.2 °F 94.1 °F 77.0 °F 79% 30.03 in 10.0 mi West 9.2 mph - N/A   Mostly Cloudy
10:55 AM 86.0 °F 96.9 °F 77.0 °F 74% 30.03 in 10.0 mi West 6.9 mph 10.4 mph N/A   Scattered Clouds
11:15 AM 87.8 °F 99.7 °F 77.0 °F 70% 30.03 in 10.0 mi WSW 13.8 mph - N/A   Mostly Cloudy
11:35 AM 86.0 °F 96.9 °F 77.0 °F 74% 30.02 in 10.0 mi WSW 10.4 mph - N/A   Mostly Cloudy
11:55 AM 86.0 °F 96.9 °F 77.0 °F 74% 30.02 in 10.0 mi WNW 6.9 mph - N/A   Mostly Cloudy
12:15 PM 87.8 °F 99.7 °F 77.0 °F 70% 30.01 in 10.0 mi WSW 9.2 mph - N/A   Mostly Cloudy
12:35 PM 89.6 °F 102.2 °F 77.0 °F 66% 30.01 in 10.0 mi West 6.9 mph - N/A   Scattered Clouds
12:55 PM 89.6 °F 102.2 °F 77.0 °F 66% 30.00 in 10.0 mi WSW 10.4 mph - N/A   Scattered Clouds
1:15 PM 86.0 °F 95.1 °F 75.2 °F 70% 30.01 in 7.0 mi WSW 11.5 mph - N/A Rain Light Rain
1:35 PM 82.4 °F 89.5 °F 75.2 °F 79% 30.00 in 10.0 mi SW 8.1 mph - N/A Thunderstorm Mostly Cloudy
1:55 PM 87.8 °F 102.5 °F 78.8 °F 75% 29.99 in 10.0 mi SSW 8.1 mph - N/A Thunderstorm Thunderstorm
2:15 PM 87.8 °F 99.7 °F 77.0 °F 70% 30.00 in 10.0 mi WNW 9.2 mph - N/A Thunderstorm Thunderstorm
2:35 PM 80.6 °F 83.9 °F 69.8 °F 70% 29.99 in 10.0 mi NW 4.6 mph - N/A Rain , Thunderstorm Light Thunderstorms and Rain
2:55 PM 78.8 °F - 71.6 °F 78% 29.99 in 10.0 mi Calm Calm - N/A Thunderstorm Thunderstorm
3:15 PM 80.6 °F 84.6 °F 71.6 °F 74% 30.00 in 10.0 mi NW 11.5 mph - N/A Rain , Thunderstorm Light Thunderstorms and Rain
3:35 PM 73.4 °F - 71.6 °F 94% 30.01 in 2.0 mi North 5.8 mph - 0.26 in Rain , Thunderstorm Heavy Thunderstorms and Rain
4:15 PM 77.0 °F - 73.4 °F 89% 29.97 in 10.0 mi Calm Calm - N/A   Scattered Clouds
4:35 PM 80.6 °F 86.2 °F 75.2 °F 84% 29.96 in 10.0 mi SSW 3.5 mph - N/A   Clear
4:55 PM 86.0 °F 96.9 °F 77.0 °F 74% 29.95 in 10.0 mi SW 11.5 mph - N/A   Clear
5:15 PM 86.0 °F 99.3 °F 78.8 °F 79% 29.94 in - SW 13.8 mph - N/A   Unknown
5:35 PM 86.0 °F 96.9 °F 77.0 °F 74% 29.94 in 10.0 mi SW 13.8 mph - N/A   Mostly Cloudy
5:55 PM 86.0 °F 96.9 °F 77.0 °F 74% 29.94 in 10.0 mi WSW 11.5 mph - N/A   Scattered Clouds
6:15 PM 86.0 °F 96.9 °F 77.0 °F 74% 29.94 in 10.0 mi WSW 13.8 mph 18.4 mph N/A   Scattered Clouds
6:35 PM 86.0 °F 96.9 °F 77.0 °F 74% 29.93 in 10.0 mi WSW 10.4 mph 17.3 mph N/A   Scattered Clouds
6:55 PM 84.2 °F 94.1 °F 77.0 °F 79% 29.94 in 10.0 mi WSW 10.4 mph 20.7 mph N/A   Scattered Clouds
7:15 PM 84.2 °F 94.1 °F 77.0 °F 79% 29.94 in 7.0 mi WSW 10.4 mph - N/A   Mostly Cloudy
7:35 PM 84.2 °F 94.1 °F 77.0 °F 79% 29.94 in 10.0 mi WSW 9.2 mph - N/A   Scattered Clouds
7:55 PM 82.4 °F 90.9 °F 77.0 °F 84% 29.94 in 10.0 mi SW 8.1 mph - N/A   Clear
8:15 PM 82.4 °F 90.9 °F 77.0 °F 84% 29.94 in 7.0 mi SW 8.1 mph - N/A   Clear
8:35 PM 82.4 °F 90.9 °F 77.0 °F 84% 29.94 in 7.0 mi WSW 6.9 mph - N/A   Clear
8:55 PM 82.4 °F 92.4 °F 78.8 °F 89% 29.94 in 7.0 mi WSW 8.1 mph - N/A   Clear
9:15 PM 82.4 °F 92.4 °F 78.8 °F 89% 29.95 in 7.0 mi WSW 6.9 mph - N/A   Clear
9:55 PM 82.4 °F 90.9 °F 77.0 °F 84% 29.94 in 10.0 mi West 5.8 mph - N/A   Clear
10:15 PM 82.4 °F 90.9 °F 77.0 °F 84% 29.94 in 10.0 mi WSW 3.5 mph - N/A   Clear
10:55 PM 80.6 °F 85.4 °F 73.4 °F 79% 29.93 in 10.0 mi West 5.8 mph - N/A   Clear
11:15 PM 80.6 °F 85.4 °F 73.4 °F 79% 29.93 in 10.0 mi West 4.6 mph - N/A Rain Light Rain
11:35 PM 78.8 °F - 73.4 °F 83% 29.93 in 10.0 mi NW 4.6 mph - N/A   Clear
11:55 PM 78.8 °F - 71.6 °F 78% 29.95 in 10.0 mi WNW 5.8 mph - N/A Rain Light Rain